BMCB-28 Weather Reports


Display with metric or nautical units.
time (UTC)temp
F
wind
direction
speed
MPH
gust
MPH
rain 1hr
in
rain 24hr
in
rain mn
in
humidity
%
barometer
mb
20260507063047 44 0 0.0 0.0 0.00 0.15 0.02 96 1016.5
20260507062046 43 0 0.0 0.0 0.00 0.15 0.02 97 1016.6
20260507061048 43 0 0.0 0.0 0.00 0.15 0.02 97 1016.5
20260507060048 43 0 0.0 0.0 0.00 0.15 0.02 98 1016.5
20260507055048 42 0 0.0 0.0 0.00 0.15 0.02 98 1016.5
20260507054042 42 0 0.0 0.0 0.00 0.15 0.02 98 1016.4
20260507053044 42 0 0.0 0.0 0.00 0.15 0.02 98 1016.3
20260507052045 41 0 0.0 0.0 0.00 0.15 0.02 98 1016.3
20260507051048 41 0 0.0 0.0 0.00 0.15 0.02 98 1016.1
20260507050044 41 0 0.0 0.0 0.01 0.15 0.02 99 1016.0
20260507045045 41 0 0.0 0.0 0.01 0.16 0.02 99 1015.9
20260507044047 41 0 0.0 0.0 0.01 0.16 0.02 99 1015.9
20260507043046 41 0 0.0 0.0 0.01 0.16 0.02 99 1015.8
20260507041048 41 0 0.0 0.0 0.01 0.16 0.02 99 1015.6
20260507040047 40 0 0.0 0.0 0.01 0.16 0.02 99 1015.6
20260507035048 40 0 0.0 0.0 0.00 0.16 0.01 99 1015.5
20260507034048 40 0 0.0 0.0 0.00 0.16 0.01 99 1015.5
20260507033049 40 0 0.0 0.0 0.00 0.17 0.01 99 1015.4
20260507032048 40 0 0.0 0.0 0.00 0.17 0.01 99 1015.3
20260507031048 40 0 0.0 0.0 0.00 0.17 0.01 99 1015.2
20260507030046 40 0 0.0 0.0 0.00 0.17 0.01 99 1015.2
20260507025048 40 0 0.0 0.0 0.00 0.18 0.01 99 1015.1
20260507024051 40 0 0.0 0.0 0.00 0.19 0.01 99 1015.1
20260507023053 40 0 0.0 0.0 0.00 0.19 0.01 10 1015.1
20260507021046 40 0 0.0 0.0 0.00 0.19 0.01 10 1014.9
20260507020046 40 0 0.0 0.0 0.00 0.19 0.01 10 1014.8
20260507015044 41 0 0.0 0.0 0.00 0.20 0.01 10 1014.8
20260507014048 41 0 0.0 0.0 0.00 0.20 0.01 10 1014.8
20260507013048 41 0 0.0 0.0 0.00 0.20 0.01 10 1014.7
20260507012045 41 0 0.0 0.0 0.00 0.20 0.01 10 1014.7
20260507011047 41 0 0.0 0.0 0.00 0.20 0.01 10 1014.6
20260507010049 41 0 0.0 0.0 0.00 0.20 0.01 10 1014.6
20260507005045 41 0 0.0 0.0 0.00 0.20 0.01 10 1014.6
20260507004048 41 0 0.0 0.0 0.00 0.20 0.01 10 1014.5
20260507003049 41 0 0.0 0.0 0.00 0.20 0.01 10 1014.4
20260507002045 41 0 0.0 0.0 0.00 0.20 0.01 10 1014.3
20260507001045 42 0 0.0 0.0 0.00 0.20 0.01 10 1014.3
20260507000052 42 0 0.0 0.0 0.00 0.20 0.01 10 1014.3
20260506235056 42 0 0.0 0.0 0.00 0.20 0.01 10 1014.2
20260506232055 42 0 0.0 0.0 0.01 0.20 0.01 10 1014.1
20260506231056 42 0 0.0 0.0 0.01 0.21 0.01 10 1014.0
20260506230056 42 0 0.0 0.0 0.01 0.21 0.01 10 1014.0
20260506225054 42 0 0.0 0.0 0.01 0.22 0.01 10 1013.9
20260506224056 42 0 0.0 0.0 0.01 0.23 0.01 10 1013.9
20260506223055 42 0 0.0 0.0 0.01 0.24 0.01 10 1013.8
20260506222057 42 0 0.0 0.0 0.01 0.24 0.01 10 1013.7
20260506221058 42 0 0.0 0.0 0.00 0.24 0.00 10 1013.6
20260506220105 42 0 0.0 0.0 0.00 0.24 0.00 10 1013.5
20260506215101 42 0 0.0 0.0 0.00 0.24 0.24 10 1013.4
20260506214102 42 0 0.0 0.0 0.00 0.26 0.24 10 1013.3
20260506213059 42 0 0.0 0.0 0.00 0.27 0.24 10 1013.2
20260506211102 42 0 0.0 0.0 0.00 0.28 0.24 10 1013.1
20260506210101 42 0 0.0 0.0 0.00 0.28 0.24 10 1013.1
20260506205058 42 0 0.0 0.0 0.00 0.28 0.24 10 1013.0
20260506203059 42 0 0.0 0.0 0.00 0.30 0.24 10 1013.0
20260506201108 42 0 0.0 0.0 0.00 0.31 0.24 10 1012.6
20260506200101 42 0 0.0 0.0 0.00 0.31 0.24 99 1012.6
20260506195059 42 0 0.0 0.0 0.00 0.32 0.24 99 1012.5
20260506193103 42 0 0.0 0.0 0.00 0.34 0.24 99 1012.5
20260506192100 42 0 0.0 0.0 0.00 0.35 0.24 99 1012.3
20260506191057 42 0 0.0 0.0 0.00 0.35 0.24 99 1012.2
20260506185059 42 0 0.0 0.0 0.00 0.36 0.24 99 1012.3
20260506184052 42 0 0.0 0.0 0.00 0.37 0.24 99 1012.2
20260506183057 42 0 0.0 0.0 0.00 0.38 0.24 99 1012.2
20260506182100 43 0 0.0 0.0 0.00 0.39 0.24 99 1012.1
20260506181051 43 0 0.0 0.0 0.00 0.39 0.24 99 1012.0
20260506180058 43 0 0.0 0.0 0.00 0.40 0.24 99 1011.8
20260506175058 43 0 0.0 0.0 0.00 0.41 0.24 10 1011.6
20260506174055 42 0 0.0 0.0 0.00 0.42 0.24 10 1011.6
20260506173055 42 0 0.0 0.0 0.00 0.43 0.24 99 1011.6
20260506171053 43 0 0.0 0.0 0.00 0.44 0.24 99 1011.4
20260506170049 43 0 0.0 0.0 0.00 0.45 0.24 99 1011.4
20260506165050 43 0 0.0 0.0 0.00 0.46 0.24 99 1011.3
20260506164051 43 0 0.0 0.0 0.00 0.48 0.24 99 1011.3
20260506163051 43 0 0.0 0.0 0.00 0.50 0.24 10 1011.3
20260506162056 43 0 0.0 0.0 0.00 0.51 0.24 99 1011.2
20260506161052 43 0 0.0 0.0 0.00 0.53 0.24 99 1011.2
20260506155055 43 0 0.0 0.0 0.00 0.59 0.24 99 1011.0
20260506154054 43 0 0.0 0.0 0.00 0.61 0.24 99 1010.9
20260506153052 43 0 0.0 0.0 0.00 0.62 0.24 98 1010.9
20260506152053 44 0 0.0 0.0 0.01 0.64 0.24 97 1010.8
20260506151055 44 0 0.0 0.0 0.01 0.64 0.24 97 1010.8
20260506150053 44 0 0.0 0.0 0.01 0.64 0.24 97 1010.8
20260506143049 45 0 0.0 0.0 0.02 0.64 0.24 98 1010.5
20260506142047 44 0 0.0 0.0 0.02 0.64 0.24 98 1010.5
20260506141048 44 0 0.0 0.0 0.01 0.63 0.24 98 1010.5
20260506140048 44 0 0.0 0.0 0.02 0.63 0.24 98 1010.5
20260506135050 45 0 0.0 0.0 0.02 0.63 0.24 98 1010.4
20260506134051 45 0 0.0 0.0 0.02 0.63 0.24 98 1010.4
20260506133048 45 0 0.0 0.0 0.02 0.63 0.24 98 1010.3
20260506130050 45 0 0.0 0.0 0.02 0.62 0.23 98 1010.1
20260506125055 45 0 0.0 0.0 0.02 0.61 0.22 98 1010.1
20260506124045 45 0 0.0 0.0 0.02 0.61 0.22 98 1010.0
20260506122050 45 0 0.0 0.0 0.02 0.61 0.22 98 1009.8
20260506121048 45 0 0.0 0.0 0.03 0.61 0.22 98 1009.7
20260506115046 45 0 0.0 0.0 0.04 0.61 0.21 97 1009.7
20260506114049 46 0 0.0 0.0 0.04 0.60 0.20 98 1009.5
20260506113051 46 0 0.0 0.0 0.04 0.60 0.20 97 1009.5
20260506112048 46 0 0.0 0.0 0.04 0.59 0.20 97 1009.4
20260506111049 46 0 0.0 0.0 0.04 0.59 0.20 97 1009.3
20260506110047 46 0 0.0 0.0 0.04 0.58 0.19 97 1009.3
20260506105049 46 0 0.0 0.0 0.03 0.57 0.18 96 1009.3
20260506104047 47 0 0.0 0.0 0.03 0.57 0.17 96 1009.2
20260506102051 47 0 0.0 0.0 0.03 0.56 0.17 97 1009.0
20260506101049 47 0 0.0 0.0 0.02 0.55 0.16 97 1009.0
20260506100046 46 0 0.0 0.0 0.03 0.55 0.16 97 1009.0
20260506095051 46 0 0.0 0.0 0.02 0.54 0.15 98 1008.9
20260506094048 46 0 0.0 0.0 0.03 0.54 0.15 98 1008.9
20260506093048 46 0 0.0 0.0 0.02 0.54 0.14 98 1008.8
20260506091050 46 0 0.0 0.0 0.02 0.53 0.13 98 1008.7
20260506090053 46 0 0.0 0.0 0.02 0.53 0.13 99 1008.7
20260506085051 46 0 0.0 0.0 0.02 0.52 0.13 10 1008.6
20260506084048 45 0 0.0 0.0 0.02 0.52 0.13 10 1008.6
20260506083049 45 0 0.0 0.0 0.01 0.51 0.12 10 1008.6
20260506082050 45 0 0.0 0.0 0.01 0.51 0.12 10 1008.6
20260506081043 45 0 0.0 0.0 0.01 0.51 0.12 10 1008.6
20260506073045 44 0 0.0 0.0 0.00 0.50 0.11 10 1008.4
20260506071052 44 0 0.0 0.0 0.00 0.50 0.11 10 1008.2